Weather History for KMAF - September, 2013

Change the Weather History Date:

Saturday, September 7, 2013

  Actual Average Record
Temperature  
Mean Temperature 82 °F 77 °F  
Max Temperature 95 °F 89 °F 102 °F (2012)
Min Temperature 68 °F 65 °F 51 °F (2011)
Degree Days  
Heating Degree Days 0 0  
Month to date heating degree days 0 0  
Since 1 July heating degree days 0 0  
Cooling Degree Days 17 12  
Month to date cooling degree days 131 91  
Year to date cooling degree days 2306 1975  
Growing Degree Days 32 (Base 50)    
Moisture  
Dew Point 57 °F    
Average Humidity 46    
Maximum Humidity 63    
Minimum Humidity 28    
Precipitation  
Precipitation 0.00 in 0.07 in 2.09 in (1932)
Month to date precipitation 0.00 0.46  
Year to date precipitation 4.57 10.18  
Sea Level Pressure  
Sea Level Pressure 29.93 in    
Wind  
Wind Speed 7 mph (SE)    
Max Wind Speed 20 mph    
Max Gust Speed 24 mph    
Visibility 10 miles    
Events      
T = Trace of Precipitation, MM = Missing Value Source: NWS Daily Summary

Daily Weather History Graph

Daily Weather History Graph

Search for Another Location

Airport or City:

Trip Planner

Search our weather history database for the weather conditions in past years. The results will help you decide how hot, cold, wet, or windy it might be!

Date:

Astronomy

Sep. 07, 2013 Rise Set
Actual Time 7:28 AM CDT 8:04 PM CDT
Civil Twilight 7:03 AM CDT 8:29 PM CDT
Nautical Twilight 6:34 AM CDT 8:58 PM CDT
Astronomical Twilight 6:04 AM CDT 9:27 PM CDT
Moon 9:33 AM CDT (9/7) 9:17 PM CDT (9/7)
Length of Visible Light 13h 26m
Length of Day
12h 36m
Waxing Crescent, 5% of the Moon is Illuminated
Sep 7
Waxing Crescent
Sep 12
First Quarter
Sep 19
Full
Sep 26
Last Quarter
Oct 4
New

Hourly Weather History & Observations

Time (CDT) Temp. Heat Index Dew Point Humidity Pressure Visibility Wind Dir Wind Speed Gust Speed Precip Events Conditions
12:53 AM 77.0 °F - 57.9 °F 52% 29.94 in 10.0 mi SSE 5.8 mph - N/A   Clear
1:53 AM 75.0 °F - 57.9 °F 55% 29.95 in 10.0 mi SE 5.8 mph - N/A   Clear
2:53 AM 73.9 °F - 57.9 °F 57% 29.95 in 10.0 mi SSE 5.8 mph - N/A   Clear
3:53 AM 73.0 °F - 57.9 °F 59% 29.94 in 10.0 mi SSE 3.5 mph - N/A   Clear
4:53 AM 72.0 °F - 57.0 °F 59% 29.94 in 10.0 mi Calm Calm - N/A   Clear
5:53 AM 71.1 °F - 57.0 °F 61% 29.95 in 10.0 mi Calm Calm - N/A   Clear
6:53 AM 68.0 °F - 55.0 °F 63% 29.96 in 10.0 mi Calm Calm - N/A   Clear
7:53 AM 68.0 °F - 55.0 °F 63% 29.98 in 10.0 mi Calm Calm - N/A   Clear
8:53 AM 75.0 °F - 59.0 °F 57% 29.98 in 10.0 mi Calm Calm - N/A   Clear
9:53 AM 79.0 °F - 61.0 °F 54% 29.99 in 10.0 mi South 4.6 mph - N/A   Clear
10:53 AM 84.0 °F 84.5 °F 62.1 °F 47% 29.99 in 10.0 mi South 9.2 mph - N/A   Clear
11:53 AM 87.1 °F 87.0 °F 61.0 °F 41% 29.98 in 10.0 mi Variable 6.9 mph - N/A   Clear
12:53 PM 89.1 °F 87.7 °F 57.0 °F 34% 29.97 in 10.0 mi SE 9.2 mph - N/A   Scattered Clouds
1:53 PM 90.0 °F 88.8 °F 57.9 °F 34% 29.95 in 10.0 mi South 4.6 mph - N/A   Partly Cloudy
2:53 PM 93.0 °F 91.1 °F 55.0 °F 28% 29.91 in 10.0 mi SSE 16.1 mph 21.9 mph N/A   Mostly Cloudy
3:53 PM 93.9 °F 92.0 °F 55.0 °F 27% 29.88 in 10.0 mi ESE 13.8 mph 19.6 mph N/A   Partly Cloudy
4:53 PM 93.0 °F 91.1 °F 55.0 °F 28% 29.86 in 10.0 mi SE 11.5 mph 23.0 mph N/A   Partly Cloudy
5:53 PM 91.9 °F 90.3 °F 55.9 °F 30% 29.85 in 10.0 mi SE 9.2 mph - N/A   Partly Cloudy
6:53 PM 91.0 °F 89.2 °F 55.9 °F 30% 29.85 in 10.0 mi SE 8.1 mph - N/A   Partly Cloudy
7:53 PM 89.1 °F 87.3 °F 55.9 °F 32% 29.86 in 10.0 mi SE 11.5 mph - N/A   Clear
8:53 PM 86.0 °F 84.2 °F 54.0 °F 33% 29.85 in 10.0 mi SSE 6.9 mph - N/A   Clear
9:53 PM 84.0 °F 82.6 °F 54.0 °F 35% 29.87 in 10.0 mi ESE 8.1 mph - N/A   Clear
10:53 PM 82.9 °F 81.8 °F 53.1 °F 36% 29.89 in 10.0 mi ESE 11.5 mph - N/A   Mostly Cloudy
11:53 PM 82.0 °F 81.3 °F 54.0 °F 38% 29.89 in 10.0 mi SE 11.5 mph - N/A   Clear